TimeMST,TemperatureF,Dew PointF,Humidity,Sea Level PressureIn,VisibilityMPH,Wind Direction,Wind SpeedMPH,Gust SpeedMPH,PrecipitationIn,Events,Conditions,WindDirDegrees,DateUTC
12:02 AM,28.4,28.4,100,29.82,2.5,Calm,Calm,-,0.01,Snow,Light Snow,0,2013-01-27 07:02:00
12:19 AM,28.4,26.6,93,29.82,3.0,Calm,Calm,-,0.01,Snow,Light Snow,0,2013-01-27 07:19:00
12:28 AM,28.4,26.6,93,29.82,3.0,Calm,Calm,-,0.01,Snow,Light Snow,0,2013-01-27 07:28:00
12:43 AM,28.4,26.6,93,29.82,4.0,Calm,Calm,-,0.01,Snow,Light Snow,0,2013-01-27 07:43:00
12:53 AM,28.0,27.0,96,29.61,6.0,NNE,3.5,-,0.01,,Overcast,20,2013-01-27 07:53:00
1:13 AM,26.6,26.6,100,29.81,5.0,Calm,Calm,-,0.00,Snow,Light Snow,0,2013-01-27 08:13:00
1:38 AM,26.6,26.6,100,29.81,10.0,North,3.5,-,0.00,,Overcast,360,2013-01-27 08:38:00
1:51 AM,26.6,24.8,93,29.81,10.0,NNW,4.6,-,0.00,,Overcast,330,2013-01-27 08:51:00
1:53 AM,26.1,25.0,96,29.61,10.0,North,5.8,-,0.00,,Overcast,360,2013-01-27 08:53:00
2:53 AM,26.1,24.1,92,29.63,10.0,North,3.5,-,N/A,,Scattered Clouds,360,2013-01-27 09:53:00
3:53 AM,26.1,23.0,88,29.65,10.0,NE,5.8,-,N/A,,Partly Cloudy,40,2013-01-27 10:53:00
4:53 AM,26.1,21.9,84,29.66,10.0,NNE,6.9,-,N/A,,Mostly Cloudy,30,2013-01-27 11:53:00
5:53 AM,26.1,21.9,84,29.66,10.0,Variable,4.6,-,N/A,,Partly Cloudy,0,2013-01-27 12:53:00
6:53 AM,25.0,21.0,85,29.70,10.0,NNW,6.9,-,N/A,,Scattered Clouds,340,2013-01-27 13:53:00
7:53 AM,26.1,21.0,81,29.69,10.0,NNW,8.1,-,N/A,,Mostly Cloudy,340,2013-01-27 14:53:00
8:53 AM,27.0,21.9,81,29.70,10.0,NNW,10.4,17.3,N/A,,Mostly Cloudy,330,2013-01-27 15:53:00
9:53 AM,30.0,23.0,75,29.70,10.0,NNW,13.8,19.6,N/A,,Overcast,330,2013-01-27 16:53:00
10:53 AM,33.1,23.0,66,29.69,10.0,North,11.5,-,N/A,,Mostly Cloudy,350,2013-01-27 17:53:00
11:53 AM,36.0,21.9,57,29.65,10.0,NNE,5.8,-,N/A,,Mostly Cloudy,30,2013-01-27 18:53:00
12:53 PM,34.0,16.0,48,29.65,10.0,SSW,10.4,-,N/A,,Mostly Cloudy,210,2013-01-27 19:53:00
1:53 PM,35.1,14.0,42,29.64,10.0,SW,13.8,-,N/A,,Partly Cloudy,220,2013-01-27 20:53:00
2:53 PM,35.1,14.0,42,29.65,10.0,SW,11.5,-,N/A,,Clear,220,2013-01-27 21:53:00
3:53 PM,33.1,12.0,42,29.67,10.0,SW,13.8,18.4,N/A,,Clear,220,2013-01-27 22:53:00
4:53 PM,28.9,12.0,49,29.70,10.0,South,4.6,-,N/A,,Clear,170,2013-01-27 23:53:00
5:53 PM,26.1,10.9,53,29.73,10.0,South,6.9,-,N/A,,Clear,170,2013-01-28 00:53:00
6:53 PM,26.1,9.0,49,29.74,10.0,Calm,Calm,-,N/A,,Clear,0,2013-01-28 01:53:00
7:53 PM,24.1,10.0,55,29.74,10.0,South,3.5,-,N/A,,Clear,170,2013-01-28 02:53:00
8:53 PM,21.9,10.0,60,29.72,10.0,South,5.8,-,N/A,,Clear,170,2013-01-28 03:53:00
9:53 PM,25.0,10.9,55,29.68,10.0,South,6.9,-,N/A,,Clear,170,2013-01-28 04:53:00
10:53 PM,21.9,12.0,66,29.67,10.0,SE,3.5,-,N/A,,Clear,140,2013-01-28 05:53:00
11:53 PM,21.0,12.0,68,29.64,10.0,ESE,5.8,-,N/A,,Clear,110,2013-01-28 06:53:00